Flag for Ukraine Weather past 2 weeks in Luhansk, Ukraine

45 °F

Mostly cloudy.

Feels Like: 38 °F
Forecast: 36 / 39 °F
Wind: 13 mph from Southwest

Location: Rostov-Na-Donu

Current Time: Nov 30, 2015 at 7:29:18 AM

Latest Report: Nov 30, 2015 at 6:30 AM

Visibility: N/A

Pressure: 29.92 "Hg

Humidity: 87%

Dew point: 41 °F

Location of LuhanskLocation

Historic Weather in Luhansk — Graph


Luhansk temperature yesterday

Maximum temperature yesterday: 46 °F (at 8:30 PM)
Minimum temperature yesterday: 32 °F (at 3:00 AM)
Average temperature yesterday: 39 °F

Past Weeks' High & Low Weather Summary

High68 °F (Nov 23, 1:00 PM)100% (Nov 16, 10:30 PM)30.33 "Hg (Nov 16, 10:30 PM)
Low25 °F (Nov 28, 8:30 AM)34% (Nov 23, 11:00 AM)29.56 "Hg (Nov 16, 11:00 PM)
Average44 °F79%29.96 "Hg
* Reported Nov 15 5:00 AM — Nov 30 5:30 AM, Luhansk, Weather by CustomWeather, © 2015

Note: Actual official high and low records may vary slightly from our data, if they occured in-between our weather recording intervals... More about our weather records


Luhansk weather history for previous 24 hours

Time TempWeatherWind HumidityBarometerVisibility
5:30 AM
Mon, Nov 30
45 °FOvercast.10 mph87%29.92 "HgN/A
5:00 AM45 °FOvercast.10 mph87%29.92 "HgN/A
4:30 AM45 °FMostly cloudy.8 mph87%29.92 "HgN/A
3:30 AM46 °FMostly cloudy.10 mph93%29.92 "HgN/A
3:00 AM46 °FSprinkles. Mostly cloudy.8 mph93%29.92 "Hg5 mi
2:30 AM46 °FSprinkles. Fog.8 mph93%29.92 "Hg3 mi
2:00 AM46 °FSprinkles. Fog.10 mph93%29.92 "Hg2 mi
1:30 AM46 °FSprinkles. Fog.10 mph93%29.92 "Hg1 mi
1:00 AM46 °FFog.8 mph93%29.92 "Hg3 mi
12:30 AM46 °FFog.6 mph93%29.92 "Hg3 mi
12:00 AM46 °FSprinkles. Fog.8 mph93%29.92 "Hg2 mi
11:30 PM
Sun, Nov 29
46 °FSprinkles. Fog.6 mph93%29.92 "Hg1 mi
11:00 PM46 °FSprinkles. Fog.6 mph93%29.89 "Hg3 mi
10:30 PM46 °FFog.3 mph93%29.89 "Hg3 mi
10:00 PM46 °FFog.3 mph93%29.89 "Hg3 mi
9:30 PM46 °FFog.3 mph93%29.89 "Hg3 mi
9:00 PM46 °FFog.8 mph93%29.89 "Hg2 mi
8:30 PM46 °FDrizzle. Fog.8 mph93%29.89 "Hg2 mi
8:00 PM45 °FQuite cool.6 mph100%29.89 "Hg0 mi
7:30 PM45 °FQuite cool.6 mph93%29.89 "Hg0 mi
7:00 PM43 °FQuite cool.6 mph93%29.86 "Hg1 mi
6:30 PM43 °FLight rain. Fog.6 mph93%29.86 "Hg2 mi
6:00 PM41 °FLight rain. Fog.6 mph100%29.86 "Hg2 mi
5:30 PM41 °FLight rain. Fog.10 mph100%29.86 "Hg2 mi
5:00 PM41 °FFog.10 mph93%29.86 "Hg3 mi
4:30 PM41 °FLight rain. Fog.10 mph93%29.86 "Hg2 mi
4:00 PM41 °FSprinkles. Fog.13 mph93%29.86 "Hg2 mi
3:30 PM41 °FSprinkles. Fog.13 mph93%29.86 "Hg2 mi
3:00 PM39 °FLight rain. Fog.15 mph100%29.83 "Hg3 mi
2:30 PM39 °FLight rain. Fog.15 mph100%29.83 "Hg3 mi
2:00 PM39 °FLight rain. Mostly cloudy.15 mph93%29.83 "Hg4 mi
1:30 PM39 °FLight rain. Mostly cloudy.17 mph93%29.83 "Hg4 mi
12:30 PM39 °FLight rain. Mostly cloudy.15 mph93%29.86 "Hg4 mi
12:00 PM39 °FLight rain. Mostly cloudy.15 mph93%29.86 "Hg4 mi
11:30 AM39 °FLight rain. Fog.17 mph93%29.89 "Hg3 mi
11:00 AM39 °FMostly cloudy.22 mph93%29.89 "Hg4 mi
10:30 AM39 °FMostly cloudy.20 mph87%29.89 "Hg4 mi
10:00 AM37 °FMostly cloudy.17 mph93%29.89 "Hg4 mi
9:30 AM36 °FMostly cloudy.15 mph93%29.89 "Hg4 mi
9:00 AM36 °FMostly cloudy.17 mph93%29.89 "Hg4 mi
8:00 AM36 °FFog.15 mph93%29.92 "Hg3 mi
7:30 AM34 °FMostly cloudy.15 mph93%29.92 "Hg4 mi
7:00 AM34 °FLight rain. Fog.15 mph93%29.92 "Hg3 mi
Weather by CustomWeather, © 2015

See weather overviewHow to use our weather pages